Location: Newark
(7.0858°N, 171.3717°E)
Time: 07:59:24
(UTC+00:00)

Courier 1B - Pass Details

Date: 02 December 2020
Orbit: 962 x 1209 km, 28.3° (Epoch: 20 January)

Event Time Altitude Azimuth Distance (km) Brightness Sun altitude
Rises 09:08:18 0° 287° (WNW) 3,634 11.1 -40.6°
Reaches altitude 10° 09:12:01 10° 307° (NW) 2,703 10.0 -41.4°
Enters shadow 09:12:17 11° 309° (NW) 2,649 10.0 -41.5°
Maximum altitude 09:15:59 17° 345° (NNW) 2,285 - -42.3°
Drops below altitude 10° 09:20:03 10° 23° (NNE) 2,771 - -43.3°
Sets 09:23:57 0° 43° (NE) 3,768 - -44.1°
